Flag for Germany Weather past 2 weeks in Ettlingen, Baden-Württemberg, Germany

Now
72 °F

Sunny.


Feels Like: 77 °F
Forecast: 55 / 71 °F
Wind: 13 mph from Southwest

Location: Karlsruhe - Baden Wurttemberg

Current Time: May 28, 2015 at 5:25:19 PM

Latest Report: May 28, 2015 at 4:50 PM


Visibility: 10 mi

Pressure: 29.98 "Hg

Humidity: 36%

Dew point: 43 °F

Location of EttlingenLocation

Historic Weather in Ettlingen — Graph

°F

Ettlingen temperature yesterday

Maximum temperature yesterday: 64 °F (at 5:20 PM)
Minimum temperature yesterday: 46 °F (at 4:50 AM)
Average temperature yesterday: 55 °F

Past Weeks' High & Low Weather Summary

 TemperatureHumidityPressure
High75 °F (May 13, 4:20 PM)94% (May 14, 4:50 AM)30.33 "Hg (May 14, 4:50 AM)
Low39 °F (May 22, 4:50 AM)26% (May 22, 4:50 PM)29.71 "Hg (May 18, 7:50 PM)
Average59 °F61%30.06 "Hg
* Reported May 13 4:20 PM — May 28 4:20 PM, Ettlingen, Weather by CustomWeather, © 2015

Note: Actual official high and low records may vary slightly from our data, if they occured in-between our weather recording intervals... More about our weather records

Advertising

Ettlingen weather history for previous 24 hours

 ConditionsComfort  
Time TempWeatherWind HumidityBarometerVisibility
4:20 PM
Thu, May 28
72 °FPassing clouds.13 mph36%29.98 "HgN/A
3:50 PM72 °FPassing clouds.10 mph36%29.98 "HgN/A
3:20 PM72 °FPassing clouds.9 mph38%30.01 "HgN/A
2:50 PM70 °FPassing clouds.9 mph38%30.01 "HgN/A
2:20 PM70 °FPassing clouds.9 mph38%30.01 "HgN/A
1:50 PM68 °FPassing clouds.9 mph38%30.04 "HgN/A
1:20 PM68 °FPassing clouds.9 mph40%30.04 "HgN/A
12:50 PM68 °FPassing clouds.10 mph38%30.04 "HgN/A
12:20 PM66 °FPassing clouds.9 mph40%30.07 "HgN/A
11:50 AM64 °FPassing clouds.9 mph43%30.07 "HgN/A
11:20 AM63 °FPassing clouds.9 mph49%30.07 "HgN/A
10:50 AM63 °FPassing clouds.8 mph49%30.09 "HgN/A
10:20 AM59 °FPassing clouds.9 mph55%30.09 "HgN/A
9:50 AM57 °FPassing clouds.9 mph59%30.09 "HgN/A
9:20 AM55 °FSunny.9 mph63%30.09 "Hg10 mi
8:50 AM54 °FPassing clouds.8 mph67%30.09 "HgN/A
8:20 AM52 °FPassing clouds.6 mph72%30.09 "HgN/A
7:50 AM46 °FSunny.5 mph87%30.09 "Hg10 mi
7:20 AM45 °FSunny.3 mph93%30.09 "Hg10 mi
6:50 AM43 °FSunny.3 mph87%30.09 "Hg10 mi
6:20 AM43 °FClear.3 mph87%30.09 "Hg10 mi
5:50 AM41 °FClear.3 mph93%30.09 "Hg10 mi
4:50 AM41 °FClear.2 mph93%30.12 "Hg10 mi
4:20 AM43 °FClear.1 mph87%30.12 "Hg10 mi
11:50 PM
Wed, May 27
48 °FClear.1 mph71%30.15 "Hg10 mi
11:20 PM50 °FClear.3 mph67%30.18 "Hg10 mi
10:50 PM52 °FClear.5 mph62%30.18 "Hg10 mi
10:20 PM52 °FClear.5 mph62%30.18 "Hg10 mi
9:50 PM54 °FSunny.5 mph58%30.18 "Hg10 mi
9:20 PM55 °FSunny.3 mph55%30.18 "Hg10 mi
8:50 PM55 °FSunny.5 mph59%30.18 "Hg10 mi
8:20 PM57 °FSunny.5 mph51%30.18 "Hg10 mi
7:50 PM59 °FPassing clouds.6 mph45%30.18 "HgN/A
7:20 PM61 °FSunny.2 mph45%30.18 "Hg10 mi
6:50 PM61 °FPassing clouds.5 mph42%30.18 "HgN/A
6:20 PM61 °FPassing clouds.5 mph42%30.18 "HgN/A
5:50 PM61 °FPassing clouds.5 mph39%30.21 "HgN/A
5:20 PM64 °FSunny.3 mph34%30.21 "Hg10 mi
Weather by CustomWeather, © 2015

See weather overviewHow to use our weather pages